DW9059 Lynnwood WA US current weather conditions

sailwx.info

Wind from 192 at 1 knots gusting 7

Air temperature 15.6° C
Dewpoint 12.5° C

Last reported at 2020-Jul-12 06:00 UTC.
Time now 2020-Jul-12 07:15 UTC

Location: N 47°50' W 122°18'.
View on Google Maps.

See reports from other nearby stations

  
Tides and Currents Weather Stations Pressure Air Temp Water Temp Dewpoint Dewpoint Depression Visibility Wind Speed Wind Dir Waves Ship Positions
date/time (UTC)wind fromknots sea level pressurealtimeterstation pressurevisibilityair tempwater tempwave heightnotes
2020-Jul-12 06:00 192 1 gusting 7 15.6
2020-Jul-12 05:45 117 2 gusting 10 15.6
2020-Jul-12 05:30 148 3 gusting 12 15.6
2020-Jul-12 05:15 143 3 gusting 8 15.6
2020-Jul-12 05:00 157 3 gusting 6 15.6
2020-Jul-12 04:45 146 1 gusting 8 15.6
2020-Jul-12 04:30 155 1 gusting 6 15.6
2020-Jul-12 04:15 144 4 gusting 8 16.1
2020-Jul-12 04:00 169 3 gusting 8 16.1
2020-Jul-12 03:45 140 1 gusting 6 16.1
2020-Jul-12 03:30 169 1 gusting 6 16.1
2020-Jul-12 03:15 158 0 gusting 6 16.1
2020-Jul-12 03:00 191 1 gusting 7 16.1
2020-Jul-12 02:45 121 2 gusting 6 16.1
2020-Jul-12 02:30 165 0 gusting 5 16.1
2020-Jul-12 02:15 184 1 gusting 5 15.6
2020-Jul-12 02:00 048 16.1
2020-Jul-12 01:45 188 0 gusting 4 16.1
2020-Jul-12 01:30 208 0 gusting 6 16.7
2020-Jul-12 01:00 161 1 gusting 10 16.7
2020-Jul-12 00:45 119 0 gusting 5 17.2
2020-Jul-12 00:30 286 17.2
2020-Jul-12 00:15 173 2 gusting 7 17.2
2020-Jul-12 00:00 293 0 gusting 3 17.8
2020-Jul-11 23:45 304 0 gusting 6 17.8
2020-Jul-11 23:15 192 1 gusting 5 17.8
2020-Jul-11 23:00 155 1 gusting 6 18.3
2020-Jul-11 22:45 154 3 gusting 10 18.3
2020-Jul-11 22:30 274 1 gusting 12 18.3
2020-Jul-11 22:15 128 3 gusting 7 18.3
2020-Jul-11 21:47 171 1 gusting 6 19.4
2020-Jul-11 21:31 161 2 gusting 8 19.4
2020-Jul-11 21:16 113 1 gusting 11 19.4
2020-Jul-11 21:01 143 2 gusting 9 19.4
2020-Jul-11 20:47 208 1 gusting 9 19.4
2020-Jul-11 20:31 182 3 gusting 7 20.0
2020-Jul-11 20:16 167 6 gusting 12 20.0
2020-Jul-11 20:01 320 0 gusting 4 20.0
2020-Jul-11 19:46 163 3 gusting 6 20.0
2020-Jul-11 19:31 197 0 gusting 5 20.6
2020-Jul-11 19:16 313 0 gusting 2 20.6
2020-Jul-11 19:00 273 1 gusting 3 20.0
2020-Jul-11 18:46 148 1 gusting 5 18.9
2020-Jul-11 18:31 288 1 gusting 4 18.3
2020-Jul-11 18:16 316 1 gusting 4 18.3
2020-Jul-11 18:01 325 1 gusting 3 17.8
2020-Jul-11 17:48 332 0 gusting 4 17.2
2020-Jul-11 17:30 261 1 gusting 6 17.2
2020-Jul-11 17:15 296 1 gusting 6 16.7
2020-Jul-11 17:00 045 0 gusting 4 16.1
2020-Jul-11 16:45 290 16.7
2020-Jul-11 16:30 192 0 gusting 4 16.1
2020-Jul-11 16:15 144 0 gusting 6 16.1
2020-Jul-11 16:00 210 0 gusting 3 15.6
2020-Jul-11 15:45 226 0 gusting 3 15.0
2020-Jul-11 15:30 107 15.0
2020-Jul-11 15:15 090 0 gusting 2 14.4
2020-Jul-11 15:00 076 13.9
2020-Jul-11 14:47 103 13.3
2020-Jul-11 14:31 113 0 gusting 2 12.8
2020-Jul-11 14:16 157 11.7
2020-Jul-11 14:01 157 10.6
2020-Jul-11 13:46 157 10.0
2020-Jul-11 13:31 157 9.4
2020-Jul-11 13:16 157 8.9
2020-Jul-11 13:01 157 8.9
2020-Jul-11 12:46 157 8.9
2020-Jul-11 12:33 157 8.9
2020-Jul-11 12:17 315 8.9
2020-Jul-11 12:01 315 9.4
2020-Jul-11 11:46 291 9.4
2020-Jul-11 11:31 291 9.4
2020-Jul-11 11:15 291 9.4
2020-Jul-11 11:01 291 9.4
2020-Jul-11 10:45 291 9.4
2020-Jul-11 10:30 291 10.0
2020-Jul-11 10:16 291 10.0
2020-Jul-11 10:01 291 10.6
2020-Jul-11 09:45 291 10.6
2020-Jul-11 09:31 291 10.6
2020-Jul-11 09:16 291 10.6
2020-Jul-11 09:00 291 11.1
2020-Jul-11 08:45 291 11.1
2020-Jul-11 08:33 291 11.1
2020-Jul-11 08:15 291 11.7
2020-Jul-11 08:00 286 11.7
2020-Jul-11 07:45 285 11.7
2020-Jul-11 07:30 285 11.7
2020-Jul-11 07:15 285 12.2
2020-Jul-11 07:00 285 12.2
2020-Jul-11 06:45 285 12.2
2020-Jul-11 06:30 285 12.8
2020-Jul-11 06:15 285 12.8
2020-Jul-11 05:49 286 13.9
2020-Jul-11 05:32 285 13.9
2020-Jul-11 05:16 285 0 gusting 1 14.4
2020-Jul-11 05:01 005 14.4
2020-Jul-11 04:47 284 15.0
2020-Jul-11 04:31 289 0 gusting 3 15.6
2020-Jul-11 04:16 316 16.1
2020-Jul-11 04:02 246 0 gusting 1 16.7
2020-Jul-11 03:46 309 16.7
2020-Jul-11 03:31 294 0 gusting 4 17.2
2020-Jul-11 03:17 297 18.3
2020-Jul-11 03:01 331 18.9
2020-Jul-11 02:46 302 2 gusting 3 19.4
2020-Jul-11 02:31 280 1 gusting 6 19.4
2020-Jul-11 02:16 261 2 gusting 6 20.0
2020-Jul-11 02:02 282 1 gusting 6 20.0
2020-Jul-11 01:46 276 1 gusting 7 20.6
2020-Jul-11 01:31 340 2 gusting 7 20.6
2020-Jul-11 01:16 296 2 gusting 8 20.6
2020-Jul-11 01:02 265 3 gusting 11 21.7
2020-Jul-11 00:46 278 0 gusting 6 23.9
2020-Jul-11 00:31 302 1 gusting 6 23.3
2020-Jul-11 00:17 205 3 gusting 5 23.3
2020-Jul-11 00:00 181 2 gusting 7 22.2
2020-Jul-10 23:46 059 1 gusting 5 22.8
2020-Jul-10 23:31 138 1 gusting 4 22.8
2020-Jul-10 23:16 075 1 gusting 4 22.8
2020-Jul-10 23:00 161 1 gusting 6 21.7
2020-Jul-10 22:46 161 3 gusting 5 22.2
2020-Jul-10 22:31 280 2 gusting 7 22.2
2020-Jul-10 22:16 198 1 gusting 6 22.2
2020-Jul-10 22:00 169 3 gusting 10 21.7
2020-Jul-10 21:46 275 2 gusting 6 21.7
2020-Jul-10 21:31 164 1 gusting 7 21.7
2020-Jul-10 21:16 171 1 gusting 5 21.7
2020-Jul-10 21:00 169 2 gusting 5 21.1
2020-Jul-10 20:45 302 1 gusting 5 20.0
2020-Jul-10 20:30 153 1 gusting 8 20.0
2020-Jul-10 20:15 155 2 gusting 8 19.4
2020-Jul-10 20:00 178 1 gusting 6 19.4
2020-Jul-10 19:45 144 1 gusting 6 18.3
2020-Jul-10 19:30 100 2 gusting 8 18.3
2020-Jul-10 19:15 109 3 gusting 8 17.8
2020-Jul-10 18:46 187 4 gusting 10 17.2
2020-Jul-10 18:45 167 3 gusting 11 17.2
2020-Jul-10 18:31 142 3 gusting 12 16.7
2020-Jul-10 18:17 186 2 gusting 8 16.7
2020-Jul-10 18:01 172 0 gusting 7 16.7
2020-Jul-10 17:46 165 1 gusting 6 16.1
2020-Jul-10 17:31 153 3 gusting 6 16.1
2020-Jul-10 17:16 153 1 gusting 6 15.6
2020-Jul-10 17:01 144 1 gusting 4 16.1
2020-Jul-10 16:46 182 0 gusting 4 15.0
2020-Jul-10 16:31 156 0 gusting 5 15.6
2020-Jul-10 16:16 187 0 gusting 6 15.0
2020-Jul-10 16:01 153 15.0
2020-Jul-10 15:46 132 1 gusting 4 14.4
2020-Jul-10 15:31 176 0 gusting 4 14.4
2020-Jul-10 15:16 108 0 gusting 2 14.4
2020-Jul-10 15:00 090 0 gusting 3 13.9
2020-Jul-10 14:45 157 13.9
2020-Jul-10 14:31 090 13.3
2020-Jul-10 14:15 102 13.3
2020-Jul-10 14:00 102 0 gusting 2 13.3
2020-Jul-10 13:45 066 12.8
2020-Jul-10 13:30 037 12.8
2020-Jul-10 13:15 037 12.2
2020-Jul-10 13:00 037 12.2
2020-Jul-10 12:46 037 12.2
2020-Jul-10 12:30 037 12.2
2020-Jul-10 12:15 037 12.2
2020-Jul-10 12:00 037 12.2
2020-Jul-10 11:45 037 12.2
2020-Jul-10 11:30 037 12.2
2020-Jul-10 11:15 037 12.2
2020-Jul-10 11:00 037 12.2
2020-Jul-10 10:45 037 12.2
2020-Jul-10 10:32 037 12.2
2020-Jul-10 10:16 037 12.2
2020-Jul-10 10:02 037 12.2
2020-Jul-10 09:46 037 11.7
2020-Jul-10 09:32 037 12.2
2020-Jul-10 09:16 037 12.2
2020-Jul-10 09:01 037 12.2
2020-Jul-10 08:45 037 12.8
2020-Jul-10 08:31 037 12.8
2020-Jul-10 08:16 037 12.8
2020-Jul-10 08:01 037 12.8
2020-Jul-10 07:46 037 12.8
2020-Jul-10 07:30 360 12.8
2020-Jul-10 07:15 360 13.3
2020-Jul-10 07:01 360 0 gusting 2 12.8